Regional Weather Roundup
Issued by NWS Glasgow, MT

Home | Current Version | Previous Version | Text Only | Print | Product List | Glossary On
Versions: 1 2 3 4 5 6 7 8 9 10 11 12 13 14 15 16 17 18 19 20 21 22 23 24 25 26 27 28 29 30 31 32 33 34 35 36 37 38 39 40 41 42 43 44 45 46 47 48 49 50
000
ASUS45 KGGW 080015
RWRGGW
HOURLY REGIONAL WEATHER ROUNDUP FOR NORTHEAST MONTANA
NATIONAL WEATHER SERVICE GLASGOW MONTANA
500 PM MST SUN FEB 07 2016

NOTE: "FAIR" INDICATES FEW OR NO CLOUDS BELOW 12,000 FEET WITH NO
SIGNIFICANT WEATHER AND/OR OBSTRUCTIONS TO VISISBILITY.

NORTHEAST MONTANA


CITY           SKY/WX    TMP DP  RH WIND       PRES   REMARKS
GLASGOW        CLEAR     34  20  56 NW16      30.36R
6HR MIN TEMP:  32; 6HR MAX TEMP:  36;

PLENTYWOOD       N/A     32  20  61 NW26G37     N/A
WOLF POINT     CLEAR     37  19  48 NW24G32   30.33R
JORDAN           N/A     34  18  52 NW20      30.39R
WINNETT          N/A     39  10  30 CALM        N/A
SIDNEY         CLEAR     36  16  44 NW18G30   30.28R
GLENDIVE       CLEAR     34  16  47 NW24G32   30.32R
MALTA            N/A     38  24  57 W15         N/A
SCOBEY           N/A     32  12  43 NW22G29   30.26R

FORT PECK REPORTS


CITY           SKY/WX    TMP DP  RH WIND       PRES   REMARKS
FORT PECK        N/A     36  20  52 W31G41      N/A
THE PINES        N/A     36  21  54 NW13G26     N/A

SOUTHEAST MONTANA


CITY           SKY/WX    TMP DP  RH WIND       PRES   REMARKS
BILLINGS       MOCLDY    38   9  30 N7        30.42R
MILES CITY     CLEAR     36  10  34 NW21G32   30.37R
BAKER          PTCLDY    33  12  41 NW26G36   30.28R
LIVINGSTON     CLEAR     39  12  33 NW12G22   30.42R

CENTRAL MONTANA


CITY           SKY/WX    TMP DP  RH WIND       PRES   REMARKS
HAVRE          CLEAR     38  12  34 NW6       30.44S
LEWISTOWN      CLEAR     32  11  41 N3        30.42R
GREAT FALLS    CLOUDY    41  15  35 NW6       30.41S
CUT BANK       CLOUDY    40  12  32 W9        30.40R
HELENA         CLOUDY    41  15  35 W7        30.47R
BUTTE          CLEAR     32  18  56 NW7       30.50R
BOZEMAN        CLEAR     36  15  42 SE3       30.48R

WESTERN MONTANA


CITY           SKY/WX    TMP DP  RH WIND       PRES   REMARKS
MISSOULA       MOCLDY    37  23  56 N3        30.59R
KALISPELL      NOT AVBL

NORTH DAKOTA


CITY           SKY/WX    TMP DP  RH WIND       PRES   REMARKS
WILLISTON      CLEAR     34  20  56 NW20G36   30.23R
DICKINSON      PTCLDY    30  14  51 NW28G45   30.16R
MINOT          CLOUDY    33  18  53 NW25G36   30.09R
BISMARCK       PTCLDY    36  17  46 NW33G45   30.07R

SOUTHERN SASKATCHEWAN


CITY           SKY/WX    TMP DP  RH WIND       PRES   REMARKS
REGINA         PTCLDY    28  19  69 NW20G26   30.25R
ESTEVAN        PTCLDY    28  21  74 NW25      30.18R
SWIFT CURRENT  CLEAR     30  18  59 NW16G22   30.33R





USA.gov is the U.S. government's official web portal to all federal, state and local government web resources and services.